TimeMDT,TemperatureF,Dew PointF,Humidity,Sea Level PressureIn,VisibilityMPH,Wind Direction,Wind SpeedMPH,Gust SpeedMPH,PrecipitationIn,Events,Conditions,WindDirDegrees,DateUTC
12:53 AM,41.0,14.0,33,30.05,10.0,Calm,Calm,-,N/A,,Clear,0,2013-04-28 06:53:00
1:53 AM,39.9,16.0,38,30.04,10.0,North,3.5,-,N/A,,Clear,350,2013-04-28 07:53:00
2:53 AM,39.9,15.1,36,30.03,10.0,Calm,Calm,-,N/A,,Clear,0,2013-04-28 08:53:00
3:53 AM,36.0,14.0,41,30.03,10.0,Calm,Calm,-,N/A,,Clear,0,2013-04-28 09:53:00
4:53 AM,28.9,12.9,51,30.06,10.0,NE,3.5,-,N/A,,Clear,50,2013-04-28 10:53:00
5:53 AM,28.9,12.9,51,30.07,10.0,Calm,Calm,-,N/A,,Clear,0,2013-04-28 11:53:00
7:53 AM,41.0,18.0,40,30.07,10.0,Calm,Calm,-,N/A,,Clear,0,2013-04-28 13:53:00
8:53 AM,51.1,18.0,27,30.04,10.0,Calm,Calm,-,N/A,,Clear,0,2013-04-28 14:53:00
9:53 AM,57.9,16.0,19,30.01,10.0,Variable,3.5,-,N/A,,Clear,0,2013-04-28 15:53:00
10:53 AM,64.0,16.0,16,29.99,10.0,Calm,Calm,-,N/A,,Clear,0,2013-04-28 16:53:00
11:53 AM,66.9,12.9,12,29.97,10.0,South,8.1,-,N/A,,Clear,190,2013-04-28 17:53:00
12:53 PM,70.0,14.0,12,29.96,10.0,West,12.7,16.1,N/A,,Clear,260,2013-04-28 18:53:00
1:53 PM,71.1,15.1,12,29.93,10.0,South,9.2,-,N/A,,Clear,190,2013-04-28 19:53:00
2:53 PM,73.0,17.1,12,29.90,10.0,WSW,10.4,21.9,N/A,,Clear,240,2013-04-28 20:53:00
3:53 PM,73.0,15.1,11,29.88,10.0,WSW,5.8,-,N/A,,Clear,250,2013-04-28 21:53:00
4:53 PM,73.9,16.0,11,29.88,10.0,SW,12.7,21.9,N/A,,Clear,230,2013-04-28 22:53:00
5:53 PM,72.0,16.0,12,29.88,10.0,WSW,15.0,24.2,N/A,,Clear,240,2013-04-28 23:53:00
6:53 PM,70.0,16.0,13,29.87,10.0,West,15.0,-,N/A,,Clear,260,2013-04-29 00:53:00
7:53 PM,66.0,15.1,14,29.86,10.0,West,11.5,-,N/A,,Clear,260,2013-04-29 01:53:00
8:53 PM,60.1,15.1,17,29.86,10.0,WSW,8.1,-,N/A,,Clear,250,2013-04-29 02:53:00
9:53 PM,59.0,16.0,19,29.85,10.0,West,5.8,-,N/A,,Clear,280,2013-04-29 03:53:00
10:53 PM,57.0,17.1,21,29.83,10.0,NW,9.2,-,N/A,,Clear,320,2013-04-29 04:53:00
11:53 PM,48.0,17.1,29,29.85,10.0,NNE,5.8,-,N/A,,Clear,30,2013-04-29 05:53:00